Lid_Strength_Index
8 7 7 6 5 4 3 2 1 1 1 0 0 0 -0 -0 0 1 1 -1 2 6 5 4 6 7 7 7 10 6 7 6 7 9 10 10 12 11 11 10 10 11 12 12 11 13 16 6 6 9 8 5 5 5
7 7 6 5 5 4 3 2 1 1 0 0 -0 0 -0 -0 0 1 3 0 1 3 4 2 2 2 4 4 6 5 6 6 6 8 7 7 10 9 10 14 7 12 9 11 10 11 6 5 6 4 5 5 5 5
7 7 6 5 4 3 2 1 1 1 0 0 -0 0 0 0 0 1 1 1 2 4 4 4 4 1 0 1 1 7 5 4 4 4 6 7 10 7 11 11 10 8 6 9 9 7 6 6 4 4 4 4 4 4
7 7 6 4 3 3 2 1 1 1 1 0 0 -0 0 0 0 1 1 0 2 3 7 5 1 2 0 0 1 2 2 2 2 3 5 6 8 6 9 8 9 7 7 8 9 7 6 5 5 4 4 4 4 3
7 6 6 4 3 2 2 1 1 1 1 0 0 0 0 0 1 0 -0 -0 -0 4 8 6 3 1 1 1 2 2 2 3 4 5 6 7 6 6 6 6 8 6 8 9 12 6 6 6 4 4 4 4 4 4
7 6 5 4 3 2 1 1 1 1 1 0 0 0 0 0 0 1 3 -1 -0 0 5 8 3 4 2 2 2 3 3 3 4 5 5 5 4 6 7 10 7 6 5 5 6 5 5 5 4 4 5 5 4 4
6 6 5 4 3 2 2 1 1 1 1 0 0 0 0 0 0 3 4 2 1 0 5 8 7 4 2 3 2 3 3 4 4 5 6 6 5 5 6 10 7 6 5 5 4 5 6 5 6 5 5 5 5 4
6 5 4 4 3 2 2 2 1 1 0 0 0 -0 0 0 1 1 -0 1 1 2 4 7 6 7 4 6 6 2 5 5 5 6 5 7 5 5 10 7 6 6 5 5 5 5 5 4 4 5 5 5 5 5
6 5 4 3 3 2 2 2 1 1 0 0 0 -0 -1 1 2 1 0 1 -0 2 7 7 9 11 3 5 4 4 4 8 4 7 6 6 7 10 8 7 6 5 5 5 5 5 4 5 5 6 6 6 6 6
5 4 3 3 2 2 2 2 1 1 1 1 -0 2 5 1 0 -0 2 3 4 4 4 7 5 8 6 7 6 7 5 7 10 6 4 8 9 6 5 5 5 4 4 4 5 6 5 6 6 6 6 6 6 7
5 4 3 2 2 2 2 2 1 1 1 2 4 4 1 -0 1 3 6 7 5 8 6 6 5 8 3 8 7 5 8 7 11 9 8 9 10 7 4 4 4 4 4 4 4 4 5 5 6 6 6 7 8 9
4 3 3 2 2 2 2 1 1 1 1 2 3 2 1 3 5 7 7 7 7 10 6 7 6 5 4 3 6 6 9 7 13 5 9 11 9 5 4 5 4 4 5 5 5 5 5 5 6 7 8 9 10 10
4 3 3 2 2 2 2 1 1 1 1 1 3 5 5 5 11 10 12 11 10 8 6 6 7 4 4 4 6 7 10 11 5 10 10 10 6 5 5 5 6 5 5 5 5 5 5 6 7 9 10 11 11 12
3 3 3 2 2 2 1 1 1 1 2 5 7 12 8 10 9 9 9 8 6 6 6 6 7 7 6 6 6 10 8 7 12 12 14 8 6 5 5 5 5 5 5 5 6 6 7 9 10 10 11 11 12 12
3 2 2 2 2 1 1 1 1 -0 2 6 6 11 9 7 7 7 5 6 5 5 6 7 6 5 8 8 7 8 10 12 11 13 10 6 5 5 6 5 5 6 6 6 6 7 8 10 11 11 12 12 13 14
2 2 1 2 2 2 1 1 0 0 2 5 6 7 5 7 8 7 7 7 5 5 5 5 7 9 10 9 10 12 12 14 12 8 6 5 5 5 5 4 5 6 6 6 6 6 8 11 12 13 13 14 15 15
2 3 2 3 2 2 1 2 2 5 5 7 7 4 4 5 6 5 5 5 4 6 9 7 11 12 8 11 12 10 12 9 8 6 5 4 4 4 4 5 5 6 6 6 6 6 8 9 11 13 15 15 15 15
3 2 2 3 2 2 2 2 4 6 8 5 7 6 4 3 4 3 4 4 5 5 6 9 7 11 12 13 12 9 7 5 4 5 4 4 4 4 4 5 5 6 6 6 7 7 8 10 12 13 14 14 14 15
2 2 2 3 2 3 5 4 4 8 5 4 4 4 4 4 2 2 2 3 2 2 5 6 9 11 10 8 7 6 5 5 5 5 5 4 4 4 4 5 5 6 6 7 7 8 9 10 11 12 12 13 14 14
3 2 2 2 2 4 6 5 2 6 7 4 3 5 3 5 4 3 3 4 4 5 8 9 9 9 8 7 6 5 4 3 4 5 5 5 4 4 5 5 6 6 6 7 7 9 8 10 10 11 12 13 14 14
3 2 2 2 3 4 5 5 6 5 5 5 4 4 5 4 3 5 5 4 6 8 9 8 10 9 6 4 3 3 3 3 4 5 5 6 4 4 5 5 5 5 7 7 8 9 9 9 10 10 10 12 12 12
3 3 2 2 5 5 5 4 5 4 5 5 5 5 6 6 5 5 4 6 7 7 7 7 7 7 6 4 3 3 2 2 3 4 5 5 5 5 5 5 6 6 7 7 7 8 9 9 9 10 10 11 11 12
3 3 3 4 6 6 7 3 7 6 8 7 6 7 7 6 5 3 7 6 7 4 5 5 5 5 5 3 2 2 2 3 4 4 4 3 4 4 5 5 5 6 7 7 7 7 8 10 10 10 10 10 10 11
3 4 6 7 7 8 6 7 6 7 6 7 8 8 7 6 4 6 9 8 6 4 5 5 5 6 6 5 4 3 2 2 3 3 3 3 4 4 4 4 5 5 5 6 7 7 8 8 10 9 9 9 9 9
7 7 6 9 6 8 9 9 7 7 9 7 8 8 8 4 7 9 9 9 6 5 5 5 6 7 8 8 7 6 3 2 3 4 3 3 3 3 4 4 4 4 5 6 7 7 8 7 8 8 8 9 9 9
10 6 8 7 7 8 8 10 9 8 8 8 8 6 5 8 9 10 8 7 6 5 5 6 7 7 7 8 9 8 5 2 2 3 3 3 3 4 4 4 5 5 4 5 6 7 8 8 8 8 9 10 11 9
10 8 6 4 4 5 7 6 5 7 8 9 8 8 7 10 11 9 7 6 6 5 5 5 6 7 7 7 7 7 5 2 2 2 2 2 2 2 3 4 4 4 3 4 4 5 6 7 7 8 8 8 8 8
7 6 8 6 5 5 8 7 8 9 8 6 6 9 10 9 9 7 7 5 5 5 5 5 5 5 7 6 7 8 5 2 2 3 2 1 1 1 2 2 2 9 3 3 4 4 4 5 5 6 6 7 7 7
7 6 5 7 6 6 6 7 7 6 5 6 8 8 7 6 6 6 5 5 5 6 7 7 6 5 7 7 7 7 5 3 4 5 5 5 4 3 2 3 4 4 4 4 10 6 4 4 4 5 5 5 6 6
7 5 7 7 8 8 6 4 6 5 4 4 4 5 6 8 6 4 5 6 8 9 8 8 7 7 8 9 10 10 6 3 3 4 5 5 4 3 2 3 3 3 3 4 5 5 11 6 8 5 6 6 6 6
4 5 7 6 7 6 6 5 4 5 5 5 4 5 7 8 7 5 6 6 8 9 9 9 9 9 9 9 10 11 11 6 6 5 4 5 3 2 2 2 2 2 2 3 4 4 5 5 5 5 6 6 6 7
5 7 8 9 8 7 5 6 7 7 7 7 8 7 7 8 10 9 9 8 7 9 10 10 10 10 9 9 8 8 10 9 10 8 6 6 4 2 1 1 1 1 2 2 3 3 4 4 5 5 5 6 6 6
7 6 7 7 9 9 8 7 8 8 7 8 8 8 8 9 11 10 8 8 9 10 10 9 9 9 9 9 9 9 10 9 9 11 11 11 11 9 5 2 2 2 2 2 3 3 3 4 4 5 5 5 6 7